Regional Weather Roundup
Issued by NWS Charleston, SC

Current Version | Previous Version | Graphics & Text | Print | Product List | Glossary On
Versions: 1 2 3 4 5 6 7 8 9 10 11 12 13 14 15 16 17 18 19 20 21 22 23 24 25 26 27 28 29 30 31 32 33 34 35 36 37 38 39 40 41 42 43 44 45 46 47 48 49 50
000 ASUS42 KCHS 311110 RWRCHS REGIONAL WEATHER ROUNDUP NATIONAL WEATHER SERVICE CHARLESTON SC 700 AM EDT THU JUL 31 2014 NOTE: "FAIR" INDICATES FEW OR NO CLOUDS BELOW 12,000 FEET WITH NO SIGNIFICANT WEATHER AND/OR OBSTRUCTIONS TO VISIBILITY. NOT ALL STATIONS ARE QUALITY CONTROLLED BY THE NATIONAL WEATHER SERVICE. USE DATA WITH CAUTION...ESPECIALLY DEWPOINT OBSERVATIONS. SCZ027-030-031-034>040-042>050-311200- ...SOUTH CAROLINA... CITY SKY/WX TMP DP RH WIND PRES REMARKS N CHARLESTON CLOUDY 77 71 82 NE6 30.02R WATERFRONT PRK N/A 79 N/A N/A NE8 N/A FORT JOHNSON NOT AVBL MOUNT PLEASANT NOT AVBL JOHNS ISLAND NOT AVBL PINOPOLIS N/A 75 72 88 E10 29.96R MONCKS CORNER NOT AVBL SUMMERVILLE CLOUDY 72 72 100 CALM 30.03S BEAUFORT MCAS MOCLDY 76 73 91 NE7 30.00R BEAUFORT ARPT PTSUNNY 77 75 94 CALM 29.99R HILTON HEAD IS MOCLDY 82 73 74 E9 30.00 GEORGETOWN NOT AVBL WALTERBORO PTSUNNY 75 N/A N/A E6 30.03R ORANGEBURG MOCLDY 72 67 84 NE8 30.04R BARNWELL PTSUNNY 72 70 94 NE6 30.04R AIKEN NOT AVBL MANNING NOT AVBL KINGSTREE NOT AVBL COLUMBIA CLOUDY 75 67 76 E6 30.05R SUMTER CLOUDY 69 68 96 NE7 30.05R FLORENCE CLOUDY 70 66 87 E6 30.07R MYRTLE BEACH MOCLDY 73 66 78 N8 30.05R N MYRTLE BEACH CLOUDY 71 67 87 N7 30.06R $$ GAZ063-065-086>088-099>101-113>116-118-119-134-136>141-150-311200- ...GEORGIA... CITY SKY/WX TMP DP RH WIND PRES REMARKS SAVANNAH ARPT MOCLDY 75 71 87 NE8 29.99R HUNTER AAF MOCLDY 76 73 92 N6 29.96R FORT STEWART MOCLDY 74 71 92 CALM 29.97S STATESBORO NOT AVBL SYLVANIA MOSUNNY 73 73 98 CALM 30.02R CLAXTON PTSUNNY 73 73 100 CALM 30.00R FOG THOMSON CLOUDY 72 72 100 CALM 30.09R AUGUSTA-BUSH MOCLDY 72 69 90 CALM 30.02S AUGUSTA-DANIEL MOCLDY 74 68 81 E7 30.04R SWAINSBORO FAIR 72 72 100 NE5 30.03R VIDALIA N/A 72 70 94 N3 30.02R ALMA PTCLDY 71 70 96 CALM 29.99R FOG WAYCROSS FOG 74 74 100 CALM 29.99R VSB 3/4 JESUP FAIR 75 72 88 CALM 29.98R BRUNSWICK PTCLDY 73 70 88 CALM 29.98R SAINT SIMONS CLEAR 75 73 93 W3 29.97R $$ SCZ027-028-034-036>038-045-046-048>050-GAZ119-141-311200- ...LAKE AND SUPPLEMENTAL COASTAL OBSERVATIONS... STATION/POSITION TIME TEMP WIND PRES WAVE SWELL AIR SEA DIR/SP/G HT/PER HT/PER/DIR (UTC) (F) (DEG/KT/KT) (MB) (FT/S) (FT/S/D) UPR LAKE MARION NOT AVBL WINYAH BAY 1000 80 90/ 6 1016.0S LAKE MURRAY 1000 72 60/ 2/ 4 1017.3S ACE BASIN NERRS 1000 76 10/ 2 1015.0S FORT PULASKI 1100 83 100/ 12/ 16 1015.3R SAPELO ISLAND 1000 77 110/ 3 1014.0S $$ ANZ835-935-AMZ111-154-330-350-352-354-374-450-454-472-311200- ...C-MAN AND BUOY OBSERVATIONS... STATION/POSITION TIME TEMP WIND PRES WAVE SWELL AIR SEA DIR/SP/G HT/PER HT/PER/DIR (UTC) (F) (DEG/KT/KT) (MB) (FT/S) (FT/S/D) FOLLY BEACH CMAN 1100 81 80/ 14/ 15 1016.8R BUOY 41004 1100 81 83 70/ 14/ 16 1015.6R 3/ 6 2/ 7 BUOY 41008 1100 82 85 160/ 10/ 12 1014.8R 3/ 5 3/ 90/ 5 5E ST. MARYS GA 1100 85 N/A 2/ 5 FRYING PAN BUOY NOT AVBL BUOY 41025 1100 VRB 8/ 10 1018.9R 3/ 7 3/130/ 7 CAPE LOOKOUT NC 1100 79 80/ 11/ 12 1018.7R BUOY 41002 1012 80 80 60/ 4/ 6 1017.6R 4/ 5 3/180/ 5 BUOY 41010 1100 82 84 210/ 8/ 10 1015.5R 2/ 8 2/110/ 8 BUOY 41012 NOT AVBL ST AUGUSTINE FL 1100 74 320/ 3/ 4 1015.9R CAPERS NEARSHORE 1000 81 90/ 12/ 14 N/A FRIPP NEARSHORE NOT AVBL $$

USA.gov is the U.S. government's official web portal to all federal, state and local government web resources and services.